Regional Weather Roundup
Issued by NWS Charleston, SC

Current Version | Previous Version | Text Only | Print | Product List | Glossary Off
Versions: 1 2 3 4 5 6 7 8 9 10 11 12 13 14 15 16 17 18 19 20 21 22 23 24 25 26 27 28 29 30 31 32 33 34 35 36 37 38 39 40 41 42 43 44 45 46 47 48 49 50

759
ASUS42 KCHS 180512
RWRCHS

REGIONAL WEATHER ROUNDUP
NATIONAL WEATHER SERVICE CHARLESTON SC
1200 AM EST SAT NOV 18 2017

NOTE: "FAIR" INDICATES FEW OR NO CLOUDS BELOW 12,000 FEET WITH NO
SIGNIFICANT WEATHER AND/OR OBSTRUCTIONS TO VISIBILITY.

NOT ALL STATIONS ARE QUALITY CONTROLLED. USE DATA WITH CAUTION...
ESPECIALLY DEWPOINT OBSERVATIONS.

SCZ027-030-031-034>040-042>050-180600-
...SOUTHEAST SOUTH CAROLINA...

CITY           SKY/WX    TMP DP  RH WIND       PRES   REMARKS
N CHARLESTON   CLEAR     45  44  97 CALM      30.14F
WATERFRONT PRK NOT AVBL
JOHNS ISLAND   FAIR      48  46  93 CALM      30.14F
PINOPOLIS        N/A     48  45  87 VRB3      30.09F
MONCKS CORNER  FAIR      39  37  93 CALM      30.14F
SUMMERVILLE    FAIR      37  36  93 CALM      30.14F
BEAUFORT MCAS  NOT AVBL
BEAUFORT ARPT  FAIR      52  50  93 NE5       30.12F
HILTON HEAD IS CLEAR     57  52  82 VRB6      30.13F
WALTERBORO     CLEAR     39  37  93 CALM      30.14F
ALLENDALE      FAIR      45  43  93 CALM      30.12F

...SOUTHERN MIDLANDS AND PEE DEE...

CITY           SKY/WX    TMP DP  RH WIND       PRES   REMARKS
GEORGETOWN     FAIR      36  34  93 CALM      30.16F
KINGSTREE      FAIR      36  34  93 CALM      30.16F
ORANGEBURG     CLEAR     38  36  92 CALM      30.14F
BARNWELL         N/A     43  37  81 CALM      30.13F
AIKEN          FAIR      45  36  70 SE6       30.15F
MANNING        FAIR      37  37 100 MISG      30.15F
COLUMBIA       PTCLDY    39  36  89 CALM      30.13F
SUMTER         CLEAR     37  33  87 CALM      30.12F
FLORENCE       CLEAR     37  35  92 E3        30.15F
MYRTLE BEACH   NOT AVBL
N MYRTLE BEACH CLEAR     39  38  96 CALM      30.15F

$$

GAZ063-065-086>088-099>101-113>116-118-119-134>141-150-180600-
...SOUTHEAST GEORGIA...

CITY           SKY/WX    TMP DP  RH WIND       PRES   REMARKS
SAVANNAH ARPT  PTCLDY    52  49  89 NE5       30.12F
HUNTER AAF     CLEAR     54  51  89 NE3       30.08F
FORT STEWART   PTCLDY    49  47  92 CALM      30.09F
STATESBORO     CLEAR     43  39  86 CALM      30.12F
SYLVANIA       CLEAR     44  43  97 CALM      30.13F
CLAXTON        FAIR      44  43  97 CALM      30.11F

...CSRA...CENTRAL AND FAR SOUTHEAST GEORGIA...

CITY           SKY/WX    TMP DP  RH WIND       PRES   REMARKS
THOMSON        CLEAR     38  37  94 CALM      30.17R
AUGUSTA-BUSH   CLOUDY    38  37  97 CALM      30.13S
AUGUSTA-DANIEL CLEAR     50  38  63 SE6       30.13S
SWAINSBORO     FAIR      45  45 100 CALM      30.12S
VIDALIA        CLEAR     50  48  93 SE3       30.10F
EASTMAN        FAIR      43  37  80 CALM      30.13S
HAZLEHURST     FAIR      55  47  76 CALM      30.09F
ALMA           CLEAR     51  50  96 CALM      30.10F
WAYCROSS       FOG       52  49  90 CALM      30.09F VSB 1/2
JESUP          MOCLDY    54  50  87 CALM      30.10F
BAXLEY         CLOUDY    50  50 100 CALM      30.10F
BRUNSWICK      PTCLDY    55  54  94 N3        30.10F
SAINT SIMONS   CLEAR     59  57  93 N8        30.08F

$$

SCZ027-028-034-036>038-045-046-048>050-GAZ119-141-180600-
...LAKE AND SUPPLEMENTAL COASTAL OBSERVATIONS...

STATION/POSITION TIME  TEMP    WIND        PRES    WAVE   SWELL
                       AIR SEA DIR/SP/G            HT/PER HT/PER/DIR
                 (UTC) (F)     (DEG/KT/KT) (MB)    (FT/S) (FT/S/D)
WINYAH BAY       NOT AVBL
LAKE MURRAY      0420   52     110/  3/  5 1019.3
ACE BASIN NERRS  0345   49        CALM     1021.0
FORT PULASKI     NOT AVBL
SAPELO ISLAND    0400   57      20/  5     1020.0

$$

ANZ835-935-AMZ111-154-330-350-352-354-370-450-454-472-180600-
...C-MAN AND BUOY OBSERVATIONS...

STATION/POSITION TIME  TEMP    WIND        PRES    WAVE   SWELL
                       AIR SEA DIR/SP/G            HT/PER HT/PER/DIR
                 (UTC) (F)     (DEG/KT/KT) (MB)    (FT/S) (FT/S/D)
BUOY 41004       0450   65 75  180/  4/  8 1020.1F   4/ 6   3/ 60/ 6
BUOY 41008       0450   68 68   70/ 14/ 16 1018.7F   4/ 6   2/ 90/ 7
FOLLY BEACH CMAN 0400   59      70/  9/ 10 1021.7S
CAPERS NEARSHORE 0408   56 63   70/ 10/ 12 1021.1S
FRIPP NEARSHORE  0408   59 62   60/ 10/ 19 1019.9F


STATION/POSITION TIME  TEMP    WIND        PRES    WAVE   SWELL
                       AIR SEA DIR/SP/G            HT/PER HT/PER/DIR
                 (UTC) (F)     (DEG/KT/KT) (MB)    (FT/S) (FT/S/D)
5E ST. MARYS GA  0500      68                N/A     3/ 6   2/ 80/11
FRYING PAN BUOY  0450   62 71   70/  6/  8 1020.3F   4/ 8   3/100/ 8
BUOY 41025       0500   55 64   20/  6/ 10 1021.4
CAPE LOOKOUT NC  0400   53     330/  4/  5 1021.5R
BUOY 41002       0450   68 77  100/  8/ 14 1019.0S   7/ 8   7/ 20/ 8
BUOY 41010       NOT AVBL
ST AUGUSTINE FL  0500   60 68  270/  5/  7 1018.6F


$$




USA.gov is the U.S. government's official web portal to all federal, state and local government web resources and services.